User: anonymous   Login
Location: Waldport
(44.4270°N, 124.0680°W)
Time: 14:23:12
(UTC-07:00)
Language:

Cosmos 1023 Rocket - Orbit

View from above orbital plane
View from above orbital plane
View from above satellite
View from above satellite

Ground track
Ground track

The orbit data is extracted from the following two-line orbital elements,

1 10962U 78063B   14304.14923736  .00000323  00000-0  10877-3 0  8857
2 10962 074.0807 190.8610 0025807 338.6371 129.6841 14.40744713907602
Epoch (UTC): 31 October 2014 03:34:54
Eccentricity: 0.0025807
inclination: 74.0807°
perigee height: 737 km
apogee height: 774 km
right ascension of ascending node: 190.8610°
argument of perigee: 338.6371°
revolutions per day: 14.40744713
mean anomaly at epoch: 129.6841°
orbit number at epoch: 90760

The dashed part of the orbit path shows where the satellite is in the earth's shadow,  

DLR